TimeMDT,TemperatureF,Dew PointF,Humidity,Sea Level PressureIn,VisibilityMPH,Wind Direction,Wind SpeedMPH,Gust SpeedMPH,PrecipitationIn,Events,Conditions,WindDirDegrees,DateUTC
12:56 AM,55.9,30.0,37,29.99,10.0,South,11.5,-,N/A,,Clear,180,2012-09-15 06:56:00
1:56 AM,57.9,30.0,35,29.97,10.0,South,12.7,-,N/A,,Clear,180,2012-09-15 07:56:00
2:56 AM,55.9,30.0,37,29.95,10.0,South,11.5,-,N/A,,Clear,170,2012-09-15 08:56:00
3:56 AM,54.0,30.0,40,29.93,10.0,South,12.7,-,N/A,,Clear,180,2012-09-15 09:56:00
4:56 AM,53.1,30.9,43,29.93,10.0,SSW,9.2,-,N/A,,Clear,210,2012-09-15 10:56:00
5:56 AM,48.9,30.9,50,29.93,10.0,SSW,8.1,-,N/A,,Clear,200,2012-09-15 11:56:00
6:56 AM,53.1,30.0,41,29.94,10.0,WSW,9.2,-,N/A,,Clear,240,2012-09-15 12:56:00
7:56 AM,61.0,30.0,31,29.94,10.0,West,10.4,-,N/A,,Clear,270,2012-09-15 13:56:00
8:56 AM,71.1,28.9,21,29.93,10.0,West,12.7,-,N/A,,Clear,280,2012-09-15 14:56:00
9:56 AM,79.0,28.9,16,29.93,10.0,WNW,16.1,-,N/A,,Clear,300,2012-09-15 15:56:00
10:56 AM,82.0,28.9,14,29.92,10.0,WNW,11.5,18.4,N/A,,Clear,290,2012-09-15 16:56:00
11:56 AM,88.0,30.0,12,29.91,10.0,NW,13.8,24.2,N/A,,Clear,310,2012-09-15 17:56:00
12:56 PM,86.0,30.0,13,29.92,10.0,WNW,16.1,23.0,N/A,,Clear,290,2012-09-15 18:56:00
1:56 PM,89.1,27.0,11,29.91,10.0,NW,17.3,24.2,N/A,,Clear,310,2012-09-15 19:56:00
2:56 PM,87.1,23.0,10,29.91,10.0,NNW,13.8,19.6,N/A,,Clear,340,2012-09-15 20:56:00
3:56 PM,87.1,24.1,10,29.92,10.0,NNW,13.8,24.2,N/A,,Clear,340,2012-09-15 21:56:00
4:56 PM,84.0,25.0,12,29.93,10.0,North,15.0,19.6,N/A,,Clear,10,2012-09-15 22:56:00
5:56 PM,79.0,28.9,16,29.96,10.0,North,8.1,-,N/A,,Clear,360,2012-09-15 23:56:00
6:56 PM,72.0,28.9,20,29.96,10.0,NNE,8.1,-,N/A,,Clear,20,2012-09-16 00:56:00
7:56 PM,66.0,30.0,26,29.98,10.0,NE,3.5,-,N/A,,Clear,50,2012-09-16 01:56:00
8:56 PM,64.9,30.0,27,29.98,10.0,NE,3.5,-,N/A,,Clear,40,2012-09-16 02:56:00
9:56 PM,63.0,32.0,31,29.97,10.0,NE,4.6,-,N/A,,Clear,50,2012-09-16 03:56:00
10:56 PM,55.9,33.1,42,29.99,10.0,NE,6.9,-,N/A,,Clear,50,2012-09-16 04:56:00
11:56 PM,61.0,35.1,38,29.97,10.0,ENE,5.8,-,N/A,,Clear,60,2012-09-16 05:56:00